ETH712 HAAB-LIRF

Flight info

Callsign ETH712
Flight time N/A
Altitude 40000
Route LABLA3A LABLA UT124 ALRAP/N0486F390 DCT KSL DCT PSD/N0484F400 P751 METRU UM872 LATAN DCT LUPAL DCT GRT DCT MOKTO DCT LUXIL DCT IPKAM DCT TEA/N0387F180 Z803 LAT
Aircraft A359/H-SDE2E3GHIJ3J4J5LM1ORWXY/LB1D1

Departure

Time N/A
Airport Addis Ababa Bole International Airport (HAAB)

Arrival

Time 2026-05-04 17:11
Airport Rome–Fiumicino Leonardo da Vinci International Airport (LIRF)
Time Latitude Longitude Altitude Speed Heading
2026-05-04 16:23 35.42224 23.47671 40138 ft 436 kts 317°
2026-05-04 16:25 35.97330 22.89057 40119 ft 436 kts 318°
2026-05-04 16:26 36.61370 22.19596 40113 ft 439 kts 318°
2026-05-04 16:28 37.07149 21.68954 40115 ft 439 kts 318°
2026-05-04 16:29 37.70763 20.97147 40129 ft 440 kts 318°
2026-05-04 16:31 38.16010 20.44782 40126 ft 441 kts 315°
2026-05-04 16:32 38.68270 19.78779 40111 ft 441 kts 315°
2026-05-04 16:33 38.99977 19.38137 40118 ft 440 kts 315°
2026-05-04 16:34 39.25795 19.04635 40121 ft 437 kts 315°
2026-05-04 16:35 39.70682 18.45912 40113 ft 436 kts 314°
2026-05-04 16:36 39.95977 18.12430 40110 ft 434 kts 314°
2026-05-04 16:37 40.21287 17.78551 40105 ft 436 kts 314°
2026-05-04 16:38 40.53851 17.31880 40102 ft 433 kts 306°
2026-05-04 16:39 40.85711 16.65974 40125 ft 437 kts 285°
2026-05-04 16:40 40.96469 16.03567 40108 ft 434 kts 285°
2026-05-04 16:41 41.05318 15.50795 40112 ft 432 kts 285°
2026-05-04 16:43 41.11663 15.11947 40119 ft 430 kts 284°
2026-05-04 16:43 41.15387 14.88738 40117 ft 431 kts 284°
2026-05-04 16:45 41.22127 14.46040 39544 ft 424 kts 284°
2026-05-04 16:46 41.23909 14.34613 37625 ft 421 kts 284°
2026-05-04 16:46 41.25204 14.26267 36209 ft 419 kts 284°
2026-05-04 16:47 41.27549 14.11054 33396 ft 420 kts 284°
2026-05-04 16:47 41.30327 13.96508 31309 ft 398 kts 296°
2026-05-04 16:48 41.39218 13.78523 28213 ft 376 kts 303°
2026-05-04 16:48 41.42156 13.72841 27216 ft 372 kts 303°
2026-05-04 16:49 41.45250 13.62741 25619 ft 371 kts 281°
2026-05-04 16:49 41.46140 13.55980 24606 ft 372 kts 280°
2026-05-04 16:50 41.47007 13.49182 23546 ft 372 kts 280°
2026-05-04 16:50 41.47865 13.42394 22452 ft 369 kts 279°
2026-05-04 16:51 41.48708 13.35685 21416 ft 365 kts 279°
2026-05-04 16:51 41.49124 13.32353 20892 ft 364 kts 279°
2026-05-04 16:51 41.49952 13.25709 19829 ft 362 kts 279°
2026-05-04 16:52 41.50772 13.19099 18769 ft 360 kts 279°
2026-05-04 16:52 41.51179 13.15800 18206 ft 360 kts 279°
2026-05-04 16:53 41.51979 13.09311 17507 ft 343 kts 279°
2026-05-04 16:53 41.53077 13.00339 16836 ft 311 kts 278°
2026-05-04 16:54 41.53421 12.97525 16561 ft 304 kts 278°
2026-05-04 16:55 41.57133 12.87968 14912 ft 300 kts 314°
2026-05-04 16:55 41.60195 12.84202 14099 ft 297 kts 314°
2026-05-04 16:56 41.63197 12.80473 13362 ft 294 kts 314°
2026-05-04 16:56 41.67688 12.74862 12557 ft 295 kts 314°
2026-05-04 16:57 41.69186 12.72992 12294 ft 295 kts 314°
2026-05-04 16:57 41.72173 12.69233 11804 ft 295 kts 314°
2026-05-04 16:58 41.76666 12.63591 11077 ft 295 kts 314°
2026-05-04 16:58 41.78146 12.61730 10827 ft 295 kts 314°
2026-05-04 16:59 41.81138 12.57959 10331 ft 295 kts 314°
2026-05-04 17:00 41.86897 12.50125 9329 ft 294 kts 312°
2026-05-04 17:00 41.91164 12.44264 8306 ft 291 kts 312°
2026-05-04 17:01 41.93979 12.40376 7458 ft 289 kts 312°
2026-05-04 17:01 41.96707 12.36647 7101 ft 270 kts 312°
2026-05-04 17:02 41.99283 12.33175 6658 ft 258 kts 312°
2026-05-04 17:02 42.02150 12.30330 5988 ft 259 kts 336°
2026-05-04 17:03 42.03824 12.29458 5693 ft 257 kts 339°
2026-05-04 17:03 42.05476 12.28641 5366 ft 255 kts 339°
2026-05-04 17:03 42.08788 12.26995 4842 ft 253 kts 339°
2026-05-04 17:04 42.11308 12.24026 4368 ft 242 kts 285°
2026-05-04 17:04 42.10717 12.19974 4067 ft 224 kts 222°
2026-05-04 17:05 42.08104 12.17833 3992 ft 219 kts 204°
2026-05-04 17:05 42.05251 12.17481 3833 ft 200 kts 166°
2026-05-04 17:06 42.02743 12.18549 3628 ft 179 kts 163°
2026-05-04 17:06 42.01569 12.19047 3247 ft 176 kts 163°
2026-05-04 17:07 41.99241 12.20024 2599 ft 174 kts 164°
2026-05-04 17:07 41.98475 12.20345 2513 ft 174 kts 164°
2026-05-04 17:07 41.96949 12.20984 2489 ft 172 kts 165°
2026-05-04 17:07 41.95806 12.21459 2363 ft 172 kts 164°
2026-05-04 17:08 41.94668 12.21935 2142 ft 171 kts 164°
2026-05-04 17:08 41.92526 12.22836 1703 ft 151 kts 164°
2026-05-04 17:08 41.91557 12.23242 1489 ft 140 kts 164°
2026-05-04 17:09 41.90655 12.23620 1302 ft 131 kts 164°
2026-05-04 17:09 41.89793 12.23975 1115 ft 129 kts 164°
2026-05-04 17:09 41.88933 12.24336 969 ft 131 kts 162°
2026-05-04 17:10 41.87191 12.25068 597 ft 131 kts 162°
2026-05-04 17:10 41.84564 12.26170 66 ft 137 kts 164°
2026-05-04 17:11 41.83700 12.26528 27 ft 111 kts 163°
2026-05-04 17:11 41.83199 12.26736 17 ft 39 kts 162°
2026-05-04 17:11 41.82735 12.26867 19 ft 32 kts 184°
2026-05-04 17:12 41.82518 12.26816 17 ft 30 kts 192°
2026-05-04 17:12 41.82188 12.26836 18 ft 24 kts 162°
2026-05-04 17:13 41.81668 12.27053 20 ft 29 kts 162°
2026-05-04 17:14 41.81061 12.27308 20 ft 26 kts 162°
2026-05-04 17:14 41.80932 12.27349 22 ft 17 kts 179°
2026-05-04 17:14 41.80698 12.27285 21 ft 17 kts 216°
2026-05-04 17:15 41.80635 12.27151 20 ft 18 kts 250°
2026-05-04 17:15 41.80537 12.26795 21 ft 22 kts 249°
2026-05-04 17:16 41.80422 12.26381 24 ft 25 kts 250°
2026-05-04 17:16 41.80251 12.25754 23 ft 21 kts 249°
2026-05-04 17:17 41.80203 12.25582 23 ft 19 kts 250°
2026-05-04 17:17 41.80094 12.25171 22 ft 13 kts 257°
2026-05-04 17:18 41.80095 12.25084 20 ft 15 kts 281°
2026-05-04 17:18 41.80095 12.24826 22 ft 12 kts 252°
2026-05-04 17:19 41.80004 12.24808 23 ft 9 kts 169°
2026-05-04 17:19 41.79879 12.24754 22 ft 5 kts 205°
2026-05-04 17:20 41.79865 12.24745 24 ft 0 kts 205°
2026-05-04 17:20 41.79863 12.24744 24 ft 0 kts 205°